Hyannis, MA

1:57 PM EDT on August 22, 2017 (GMT -0400)
Barnstable Municipal-Boardman-Polando Field

Weather History for KHYA - February, 2009

Change the Weather History Date:

Thursday, February 5, 2009

  Actual Average Record
Temperature  
Mean Temperature 18 °F -  
Max Temperature 21 °F 37 °F 61 °F (1991)
Min Temperature 14 °F 19 °F 3 °F (1965)
Degree Days  
Heating Degree Days 47    
Moisture  
Dew Point 7 °F    
Average Humidity 64    
Maximum Humidity 81    
Minimum Humidity 43    
Precipitation  
Precipitation 0.00 in - - ()
Sea Level Pressure  
Sea Level Pressure 30.11 in    
Wind  
Wind Speed 15 mph (NNW)    
Max Wind Speed 20 mph    
Max Gust Speed 33 mph    
Visibility 7 miles    
Events Snow    
Averages and records for this station are not official NWS values.
T = Trace of Precipitation, MM = Missing Value Source: NWS Daily Summary

Daily Weather History Graph

Daily Weather History Graph

Search for Another Location

Airport or City:

Trip Planner

Search our weather history database for the weather conditions in past years. The results will help you decide how hot, cold, wet, or windy it might be!

Date:

Astronomy

Feb. 05, 2009 Rise Set
Actual Time 6:48 AM EST 5:02 PM EST
Civil Twilight 6:19 AM EST 5:31 PM EST
Nautical Twilight 5:46 AM EST 6:04 PM EST
Astronomical Twilight 5:14 AM EST 6:36 PM EST
Moon 12:21 PM EST (2/5) 3:32 AM EST (2/5)
Length of Visible Light 11h 11m
Length of Day
10h 13m
Waxing Gibbous, 79% of the Moon is Illuminated
Feb 5
Waxing Gibbous
Feb 9
Full
Feb 16
Last Quarter
Feb 24
New
Mar 4
First Quarter

Hourly Weather History & Observations

Time (EST) Temp. Windchill Dew Point Humidity Pressure Visibility Wind Dir Wind Speed Gust Speed Precip Events Conditions
12:34 AM 21.2 °F 6.0 °F 10.4 °F 63% 29.98 in 10.0 mi North 19.6 mph 27.6 mph N/A   Mostly Cloudy
12:56 AM 19.9 °F 7.3 °F 10.9 °F 68% 29.99 in 10.0 mi North 12.7 mph 23.0 mph N/A   Overcast
1:56 AM 19.0 °F 5.6 °F 10.9 °F 71% 29.99 in 10.0 mi North 13.8 mph 33.4 mph N/A   Overcast
2:56 AM 19.0 °F 4.5 °F 12.0 °F 74% 30.00 in 6.0 mi North 16.1 mph 26.5 mph 0.00 in Snow Light Snow
3:26 AM 19.4 °F 4.5 °F 12.2 °F 74% 30.02 in 2.5 mi North 17.3 mph 21.9 mph 0.00 in Snow Light Snow
3:56 AM 19.0 °F 4.5 °F 12.0 °F 74% 30.03 in 2.5 mi NNW 16.1 mph 23.0 mph 0.00 in Snow Light Snow
4:21 AM 17.6 °F 2.7 °F 12.2 °F 79% 30.02 in 3.0 mi NNW 16.1 mph 25.3 mph 0.00 in Snow Light Snow
4:29 AM 17.6 °F 3.7 °F 12.2 °F 79% 30.02 in 2.5 mi NNW 13.8 mph 21.9 mph 0.00 in Snow Light Snow
4:51 AM 17.6 °F 5.0 °F 12.2 °F 79% 30.04 in 1.8 mi NNW 11.5 mph 21.9 mph 0.00 in Snow Light Snow
4:56 AM 17.1 °F 1.5 °F 12.0 °F 81% 30.05 in 1.2 mi NNW 17.3 mph 23.0 mph 0.00 in Snow Light Snow
5:10 AM 17.6 °F 3.7 °F 12.2 °F 79% 30.04 in 1.2 mi NNW 13.8 mph 23.0 mph 0.00 in Snow Light Snow
5:29 AM 17.6 °F 2.7 °F 12.2 °F 79% 30.05 in 2.5 mi North 16.1 mph 20.7 mph 0.00 in Snow Light Snow
5:38 AM 17.6 °F 2.2 °F 12.2 °F 79% 30.06 in 4.0 mi North 17.3 mph 23.0 mph 0.00 in Snow Light Snow
5:56 AM 18.0 °F 4.8 °F 10.9 °F 74% 30.07 in 6.0 mi North 12.7 mph 20.7 mph 0.00 in Snow Light Snow
6:56 AM 16.0 °F 0.6 °F 10.0 °F 77% 30.09 in 4.0 mi North 16.1 mph 24.2 mph 0.00 in Snow Light Snow
7:56 AM 16.0 °F 1.1 °F 9.0 °F 74% 30.11 in 5.0 mi NNW 15.0 mph - 0.00 in Snow Light Snow
8:56 AM 16.0 °F -0.4 °F 9.0 °F 74% 30.12 in 2.5 mi North 18.4 mph 23.0 mph 0.00 in Snow Light Snow
9:34 AM 15.8 °F -0.2 °F 8.6 °F 73% 30.12 in 3.0 mi North 17.3 mph 24.2 mph 0.00 in Snow Light Snow
9:56 AM 16.0 °F 1.7 °F 7.0 °F 68% 30.13 in 3.0 mi North 13.8 mph 23.0 mph 0.00 in Snow Light Snow
10:16 AM 15.8 °F -0.2 °F 6.8 °F 68% 30.12 in 4.0 mi North 17.3 mph 25.3 mph 0.00 in Snow Light Snow
10:27 AM 15.8 °F 2.7 °F 6.8 °F 68% 30.12 in 5.0 mi NNW 11.5 mph 21.9 mph 0.00 in Snow Light Snow
10:56 AM 17.1 °F 1.5 °F 6.1 °F 62% 30.13 in 10.0 mi North 17.3 mph 24.2 mph 0.00 in   Mostly Cloudy
11:36 AM 17.6 °F 2.2 °F 6.8 °F 63% 30.11 in 10.0 mi NNW 17.3 mph 23.0 mph 0.00 in   Overcast
11:56 AM 17.1 °F 5.0 °F 6.1 °F 62% 30.12 in 10.0 mi NNW 10.4 mph 17.3 mph 0.00 in   Overcast
12:56 PM 18.0 °F 2.6 °F 3.0 °F 52% 30.12 in 10.0 mi North 17.3 mph 23.0 mph N/A   Mostly Cloudy
1:56 PM 18.0 °F 4.8 °F 1.0 °F 48% 30.12 in 10.0 mi NNW 12.7 mph 21.9 mph N/A   Clear
2:56 PM 19.0 °F 8.2 °F 1.0 °F 46% 30.13 in 10.0 mi NW 9.2 mph - N/A   Scattered Clouds
3:56 PM 19.0 °F 9.0 °F -0.0 °F 43% 30.14 in 10.0 mi NW 8.1 mph 18.4 mph N/A   Clear
4:56 PM 18.0 °F 9.8 °F -0.0 °F 45% 30.17 in 10.0 mi NW 5.8 mph - N/A   Clear
5:56 PM 17.1 °F 8.7 °F 1.0 °F 50% 30.19 in 10.0 mi WNW 5.8 mph - N/A   Clear
6:56 PM 17.1 °F 7.6 °F -0.0 °F 47% 30.22 in 10.0 mi NW 6.9 mph 17.3 mph N/A   Clear
7:56 PM 16.0 °F 5.3 °F -0.0 °F 49% 30.24 in 10.0 mi WNW 8.1 mph - N/A   Clear
8:56 PM 16.0 °F 6.3 °F -0.9 °F 47% 30.26 in 10.0 mi NW 6.9 mph - N/A   Clear
9:56 PM 16.0 °F 4.4 °F -0.9 °F 47% 30.27 in 10.0 mi NW 9.2 mph - N/A   Clear
10:56 PM 15.1 °F 4.2 °F -0.9 °F 49% 30.29 in 10.0 mi NW 8.1 mph - N/A   Clear
11:56 PM 14.0 °F 3.9 °F -0.0 °F 54% 30.29 in 10.0 mi NW 6.9 mph - N/A   Clear